User: anonymous   Login
Location: Caltech
(34.1382°N, 118.1253°W)
Time: 21:22:27
(UTC-07:00)
Language:

Cosmos 1939 - Orbit

View from above orbital plane
View from above orbital plane
View from above satellite
View from above satellite

Ground track
Ground track

The orbit data is extracted from the following two-line orbital elements,

1 19045U 88032A   14298.91301874  .01583158  21780-2  11637-2 0   427
2 19045 097.2010 012.2118 0006560 260.6463 099.4274 16.16175695461169
Epoch (UTC): 25 October 2014 21:54:44
Eccentricity: 0.0006560
inclination: 97.2010°
perigee height: 225 km
apogee height: 234 km
right ascension of ascending node: 12.2118°
argument of perigee: 260.6463°
revolutions per day: 16.16175695
mean anomaly at epoch: 99.4274°
orbit number at epoch: 46116

The dashed part of the orbit path shows where the satellite is in the earth's shadow,  

DLR